Year,Month,Day,Hour,Minute,Value (Times are PST for temperature in C)
2021,06,27,00,00,22.50
2021,06,27,00,01,22.50
2021,06,27,00,02,22.40
2021,06,27,00,03,22.40
2021,06,27,00,04,22.40
2021,06,27,00,05,22.40
2021,06,27,00,06,22.30
2021,06,27,00,07,22.30
2021,06,27,00,08,22.30
2021,06,27,00,09,22.20
2021,06,27,00,10,22.20
2021,06,27,00,11,22.20
2021,06,27,00,12,22.20
2021,06,27,00,13,22.10
2021,06,27,00,14,22.10
2021,06,27,00,15,22.10
2021,06,27,00,16,22.10
2021,06,27,00,17,22.10
2021,06,27,00,18,22.10
2021,06,27,00,19,22.10
2021,06,27,00,20,22.10
2021,06,27,00,21,22.00
2021,06,27,00,22,22.00
2021,06,27,00,23,22.00
2021,06,27,00,24,21.90
2021,06,27,00,25,21.90
2021,06,27,00,26,21.90
2021,06,27,00,27,21.90
2021,06,27,00,28,21.90
2021,06,27,00,29,21.90
2021,06,27,00,30,21.80
2021,06,27,00,31,21.80
2021,06,27,00,32,21.80
2021,06,27,00,33,21.80
2021,06,27,00,34,21.80
2021,06,27,00,35,21.80
2021,06,27,00,36,21.70
2021,06,27,00,37,21.70
2021,06,27,00,38,21.70
2021,06,27,00,39,21.70
2021,06,27,00,40,21.70
2021,06,27,00,41,21.70
2021,06,27,00,42,21.70
2021,06,27,00,43,21.70
2021,06,27,00,44,21.70
2021,06,27,00,45,21.60
2021,06,27,00,46,21.60
2021,06,27,00,47,21.60
2021,06,27,00,48,21.60
2021,06,27,00,49,21.60
2021,06,27,00,50,21.50
2021,06,27,00,51,21.50
2021,06,27,00,52,21.50
2021,06,27,00,53,21.50
2021,06,27,00,54,21.40
2021,06,27,00,55,21.40
2021,06,27,00,56,21.40
2021,06,27,00,57,21.40
2021,06,27,00,58,21.40
2021,06,27,00,59,21.40
2021,06,27,01,00,21.40
2021,06,27,01,01,21.40
2021,06,27,01,02,21.40
2021,06,27,01,03,21.30
2021,06,27,01,04,21.30
2021,06,27,01,05,21.30
2021,06,27,01,06,21.30
2021,06,27,01,07,21.20
2021,06,27,01,08,21.20
2021,06,27,01,09,21.20
2021,06,27,01,10,21.20
2021,06,27,01,11,21.20
2021,06,27,01,12,21.20
2021,06,27,01,13,21.10
2021,06,27,01,14,21.10
2021,06,27,01,15,21.10
2021,06,27,01,16,21.10
2021,06,27,01,17,21.10
2021,06,27,01,18,21.10
2021,06,27,01,19,21.10
2021,06,27,01,20,21.10
2021,06,27,01,21,21.00
2021,06,27,01,22,21.00
2021,06,27,01,23,21.00
2021,06,27,01,24,21.00
2021,06,27,01,25,21.00
2021,06,27,01,26,21.00
2021,06,27,01,27,21.00
2021,06,27,01,28,21.00
2021,06,27,01,29,21.00
2021,06,27,01,30,20.90
2021,06,27,01,31,21.00
2021,06,27,01,32,20.90
2021,06,27,01,33,20.90
2021,06,27,01,34,20.90
2021,06,27,01,35,20.90
2021,06,27,01,36,20.90
2021,06,27,01,37,20.90
2021,06,27,01,38,20.90
2021,06,27,01,39,20.90
2021,06,27,01,40,20.90
2021,06,27,01,41,20.90
2021,06,27,01,42,20.90
2021,06,27,01,43,20.90
2021,06,27,01,44,20.90
2021,06,27,01,45,20.90
2021,06,27,01,46,20.90
2021,06,27,01,47,20.90
2021,06,27,01,48,20.90
2021,06,27,01,49,20.90
2021,06,27,01,50,20.90
2021,06,27,01,51,20.90
2021,06,27,01,52,20.90
2021,06,27,01,53,20.90
2021,06,27,01,54,20.90
2021,06,27,01,55,20.90
2021,06,27,01,56,20.80
2021,06,27,01,57,20.80
2021,06,27,01,58,20.80
2021,06,27,01,59,20.80
2021,06,27,02,00,20.80
2021,06,27,02,01,20.80
2021,06,27,02,02,20.80
2021,06,27,02,03,20.80
2021,06,27,02,04,20.80
2021,06,27,02,05,20.80
2021,06,27,02,06,20.80
2021,06,27,02,07,20.80
2021,06,27,02,08,20.80
2021,06,27,02,09,20.80
2021,06,27,02,10,20.80
2021,06,27,02,11,20.80
2021,06,27,02,12,20.80
2021,06,27,02,13,20.80
2021,06,27,02,14,20.80
2021,06,27,02,15,20.80
2021,06,27,02,16,20.80
2021,06,27,02,17,20.80
2021,06,27,02,18,20.80
2021,06,27,02,19,20.80
2021,06,27,02,20,20.80
2021,06,27,02,21,20.80
2021,06,27,02,22,20.80
2021,06,27,02,23,20.80
2021,06,27,02,24,20.80
2021,06,27,02,25,20.80
2021,06,27,02,26,20.80
2021,06,27,02,27,20.80
2021,06,27,02,28,20.80
2021,06,27,02,29,20.80
2021,06,27,02,30,20.80
2021,06,27,02,31,20.80
2021,06,27,02,32,20.80
2021,06,27,02,33,20.80
2021,06,27,02,34,20.80
2021,06,27,02,35,20.80
2021,06,27,02,36,20.80
2021,06,27,02,37,20.70
2021,06,27,02,38,20.70
2021,06,27,02,39,20.70
2021,06,27,02,40,20.70
2021,06,27,02,41,20.70
2021,06,27,02,42,20.70
2021,06,27,02,43,20.70
2021,06,27,02,44,20.70
2021,06,27,02,45,20.70
2021,06,27,02,46,20.70
2021,06,27,02,47,20.70
2021,06,27,02,48,20.70
2021,06,27,02,49,20.70
2021,06,27,02,50,20.70
2021,06,27,02,51,20.70
2021,06,27,02,52,20.70
2021,06,27,02,53,20.60
2021,06,27,02,54,20.60
2021,06,27,02,55,20.60
2021,06,27,02,56,20.60
2021,06,27,02,57,20.60
2021,06,27,02,58,20.60
2021,06,27,02,59,20.60
2021,06,27,03,00,20.60
2021,06,27,03,01,20.60
2021,06,27,03,02,20.60
2021,06,27,03,03,20.60
2021,06,27,03,04,20.60
2021,06,27,03,05,20.50
2021,06,27,03,06,20.50
2021,06,27,03,07,20.50
2021,06,27,03,08,20.50
2021,06,27,03,09,20.50
2021,06,27,03,10,20.50
2021,06,27,03,11,20.40
2021,06,27,03,12,20.50
2021,06,27,03,13,20.50
2021,06,27,03,14,20.40
2021,06,27,03,15,20.40
2021,06,27,03,16,20.40
2021,06,27,03,17,20.40
2021,06,27,03,18,20.40
2021,06,27,03,19,20.50
2021,06,27,03,20,20.50
2021,06,27,03,21,20.50
2021,06,27,03,22,20.50
2021,06,27,03,23,20.50
2021,06,27,03,24,20.50
2021,06,27,03,25,20.60
2021,06,27,03,26,20.60
2021,06,27,03,27,20.60
2021,06,27,03,28,20.60
2021,06,27,03,29,20.60
2021,06,27,03,30,20.60
2021,06,27,03,31,20.60
2021,06,27,03,32,20.60
2021,06,27,03,33,20.60
2021,06,27,03,34,20.60
2021,06,27,03,35,20.60
2021,06,27,03,36,20.60
2021,06,27,03,37,20.50
2021,06,27,03,38,20.50
2021,06,27,03,39,20.50
2021,06,27,03,40,20.50
2021,06,27,03,41,20.50
2021,06,27,03,42,20.50
2021,06,27,03,43,20.50
2021,06,27,03,44,20.50
2021,06,27,03,45,20.50
2021,06,27,03,46,20.50
2021,06,27,03,47,20.50
2021,06,27,03,48,20.50
2021,06,27,03,49,20.50
2021,06,27,03,50,20.50
2021,06,27,03,51,20.50
2021,06,27,03,52,20.50
2021,06,27,03,53,20.50
2021,06,27,03,54,20.50
2021,06,27,03,55,20.50
2021,06,27,03,56,20.50
2021,06,27,03,57,20.50
2021,06,27,03,58,20.40
2021,06,27,03,59,20.40
2021,06,27,04,00,20.40
2021,06,27,04,01,20.40
2021,06,27,04,02,20.40
2021,06,27,04,03,20.40
2021,06,27,04,04,20.40
2021,06,27,04,05,20.40
2021,06,27,04,06,20.40
2021,06,27,04,07,20.40
2021,06,27,04,08,20.40
2021,06,27,04,09,20.40
2021,06,27,04,10,20.40
2021,06,27,04,11,20.40
2021,06,27,04,12,20.40
2021,06,27,04,13,20.40
2021,06,27,04,14,20.40
2021,06,27,04,15,20.40
2021,06,27,04,16,20.40
2021,06,27,04,17,20.40
2021,06,27,04,18,20.40
2021,06,27,04,19,20.40
2021,06,27,04,20,20.40
2021,06,27,04,21,20.40
2021,06,27,04,22,20.50
2021,06,27,04,23,20.50
2021,06,27,04,24,20.50
2021,06,27,04,25,20.50
2021,06,27,04,26,20.50
2021,06,27,04,27,20.50
2021,06,27,04,28,20.50
2021,06,27,04,29,20.50
2021,06,27,04,30,20.40
2021,06,27,04,31,20.40
2021,06,27,04,32,20.40
2021,06,27,04,33,20.40
2021,06,27,04,34,20.40
2021,06,27,04,35,20.40
2021,06,27,04,36,20.40
2021,06,27,04,37,20.40
2021,06,27,04,38,20.40
2021,06,27,04,39,20.40
2021,06,27,04,40,20.40
2021,06,27,04,41,20.40
2021,06,27,04,42,20.40
2021,06,27,04,43,20.40
2021,06,27,04,44,20.40
2021,06,27,04,45,20.40
2021,06,27,04,46,20.40
2021,06,27,04,47,20.40
2021,06,27,04,48,20.40
2021,06,27,04,49,20.40
2021,06,27,04,50,20.40
2021,06,27,04,51,20.40
2021,06,27,04,52,20.40
2021,06,27,04,53,20.40
2021,06,27,04,54,20.40
2021,06,27,04,55,20.40
2021,06,27,04,56,20.40
2021,06,27,04,57,20.40
2021,06,27,04,58,20.40
2021,06,27,04,59,20.40
2021,06,27,05,00,20.40
2021,06,27,05,01,20.40
2021,06,27,05,02,20.40
2021,06,27,05,03,20.40
2021,06,27,05,04,20.40
2021,06,27,05,05,20.40
2021,06,27,05,06,20.40
2021,06,27,05,07,20.40
2021,06,27,05,08,20.40
2021,06,27,05,09,20.40
2021,06,27,05,10,20.40
2021,06,27,05,11,20.40
2021,06,27,05,12,20.40
2021,06,27,05,13,20.40
2021,06,27,05,14,20.40
2021,06,27,05,15,20.40
2021,06,27,05,16,20.40
2021,06,27,05,17,20.40
2021,06,27,05,18,20.40
2021,06,27,05,19,20.40
2021,06,27,05,20,20.40
2021,06,27,05,21,20.40
2021,06,27,05,22,20.40
2021,06,27,05,23,20.40
2021,06,27,05,24,20.40
2021,06,27,05,25,20.40
2021,06,27,05,26,20.40
2021,06,27,05,27,20.40
2021,06,27,05,28,20.40
2021,06,27,05,29,20.50
2021,06,27,05,30,20.50
2021,06,27,05,31,20.60
2021,06,27,05,32,20.70
2021,06,27,05,33,20.70
2021,06,27,05,34,20.70
2021,06,27,05,35,20.80
2021,06,27,05,36,20.80
2021,06,27,05,37,20.90
2021,06,27,05,38,20.90
2021,06,27,05,39,21.00
2021,06,27,05,40,21.00
2021,06,27,05,41,21.00
2021,06,27,05,42,21.00
2021,06,27,05,43,21.00
2021,06,27,05,44,21.00
2021,06,27,05,45,21.00
2021,06,27,05,46,21.00
2021,06,27,05,47,21.00
2021,06,27,05,48,21.00
2021,06,27,05,49,21.10
2021,06,27,05,50,21.10
2021,06,27,05,51,21.10
2021,06,27,05,52,21.10
2021,06,27,05,53,21.10
2021,06,27,05,54,21.10
2021,06,27,05,55,21.10
2021,06,27,05,56,21.10
2021,06,27,05,57,21.10
2021,06,27,05,58,21.10
2021,06,27,05,59,21.10
2021,06,27,06,00,21.00
2021,06,27,06,01,21.00
2021,06,27,06,02,21.00
2021,06,27,06,03,21.00
2021,06,27,06,04,21.00
2021,06,27,06,05,21.00
2021,06,27,06,06,21.00
2021,06,27,06,07,21.00
2021,06,27,06,08,21.00
2021,06,27,06,09,21.00
2021,06,27,06,10,21.00
2021,06,27,06,11,21.00
2021,06,27,06,12,21.00
2021,06,27,06,13,21.00
2021,06,27,06,14,21.00
2021,06,27,06,15,21.00
2021,06,27,06,16,21.10
2021,06,27,06,17,21.10
2021,06,27,06,18,21.10
2021,06,27,06,19,21.10
2021,06,27,06,20,21.10
2021,06,27,06,21,21.10
2021,06,27,06,22,21.20
2021,06,27,06,23,21.20
2021,06,27,06,24,21.30
2021,06,27,06,25,21.30
2021,06,27,06,26,21.40
2021,06,27,06,27,21.50
2021,06,27,06,28,21.60
2021,06,27,06,29,21.80
2021,06,27,06,30,21.90
2021,06,27,06,31,22.00
2021,06,27,06,32,22.20
2021,06,27,06,33,22.30
2021,06,27,06,34,22.40
2021,06,27,06,35,22.60
2021,06,27,06,36,22.70
2021,06,27,06,37,22.80
2021,06,27,06,38,22.80
2021,06,27,06,39,22.90
2021,06,27,06,40,23.00
2021,06,27,06,41,23.00
2021,06,27,06,42,23.10
2021,06,27,06,43,23.20
2021,06,27,06,44,23.20
2021,06,27,06,45,23.30
2021,06,27,06,46,23.30
2021,06,27,06,47,23.40
2021,06,27,06,48,23.40
2021,06,27,06,49,23.50
2021,06,27,06,50,23.50
2021,06,27,06,51,23.60
2021,06,27,06,52,23.60
2021,06,27,06,53,23.60
2021,06,27,06,54,23.70
2021,06,27,06,55,23.70
2021,06,27,06,56,23.80
2021,06,27,06,57,23.80
2021,06,27,06,58,23.90
2021,06,27,06,59,24.00
2021,06,27,07,00,24.00
2021,06,27,07,01,24.10
2021,06,27,07,02,24.10
2021,06,27,07,03,24.20
2021,06,27,07,04,24.20
2021,06,27,07,05,24.30
2021,06,27,07,06,24.30
2021,06,27,07,07,24.40
2021,06,27,07,08,24.40
2021,06,27,07,09,24.50
2021,06,27,07,10,24.50
2021,06,27,07,11,24.60
2021,06,27,07,12,24.60
2021,06,27,07,13,24.70
2021,06,27,07,14,24.70
2021,06,27,07,15,24.70
2021,06,27,07,16,24.80
2021,06,27,07,17,24.80
2021,06,27,07,18,24.90
2021,06,27,07,19,24.90
2021,06,27,07,20,24.90
2021,06,27,07,21,25.00
2021,06,27,07,22,25.00
2021,06,27,07,23,25.00
2021,06,27,07,24,25.10
2021,06,27,07,25,25.10
2021,06,27,07,26,25.10
2021,06,27,07,27,25.20
2021,06,27,07,28,25.20
2021,06,27,07,29,25.30
2021,06,27,07,30,25.30
2021,06,27,07,31,25.40
2021,06,27,07,32,25.40
2021,06,27,07,33,25.50
2021,06,27,07,34,25.60
2021,06,27,07,35,25.60
2021,06,27,07,36,25.70
2021,06,27,07,37,25.80
2021,06,27,07,38,25.80
2021,06,27,07,39,25.80
2021,06,27,07,40,25.90
2021,06,27,07,41,26.00
2021,06,27,07,42,26.00
2021,06,27,07,43,26.10
2021,06,27,07,44,26.10
2021,06,27,07,45,26.20
2021,06,27,07,46,26.20
2021,06,27,07,47,26.30
2021,06,27,07,48,26.30
2021,06,27,07,49,26.30
2021,06,27,07,50,26.30
2021,06,27,07,51,26.30
2021,06,27,07,52,26.40
2021,06,27,07,53,26.40
2021,06,27,07,54,26.40
2021,06,27,07,55,26.40
2021,06,27,07,56,26.50
2021,06,27,07,57,26.50
2021,06,27,07,58,26.60
2021,06,27,07,59,26.60
2021,06,27,08,00,26.60
2021,06,27,08,01,26.70
2021,06,27,08,02,26.70
2021,06,27,08,03,26.70
2021,06,27,08,04,26.80
2021,06,27,08,05,26.80
2021,06,27,08,06,26.80
2021,06,27,08,07,26.90
2021,06,27,08,08,26.90
2021,06,27,08,09,26.90
2021,06,27,08,10,27.00
2021,06,27,08,11,27.00
2021,06,27,08,12,27.00
2021,06,27,08,13,27.10
2021,06,27,08,14,27.10
2021,06,27,08,15,27.10
2021,06,27,08,16,27.20
2021,06,27,08,17,27.20
2021,06,27,08,18,27.20
2021,06,27,08,19,27.30
2021,06,27,08,20,27.30
2021,06,27,08,21,27.40
2021,06,27,08,22,27.40
2021,06,27,08,23,27.50
2021,06,27,08,24,27.50
2021,06,27,08,25,27.60
2021,06,27,08,26,27.60
2021,06,27,08,27,27.70
2021,06,27,08,28,27.70
2021,06,27,08,29,27.80
2021,06,27,08,30,27.80
2021,06,27,08,31,27.90
2021,06,27,08,32,27.90
2021,06,27,08,33,28.00
2021,06,27,08,34,28.10
2021,06,27,08,35,28.10
2021,06,27,08,36,28.20
2021,06,27,08,37,28.20
2021,06,27,08,38,28.30
2021,06,27,08,39,28.40
2021,06,27,08,40,28.40
2021,06,27,08,41,28.50
2021,06,27,08,42,28.60
2021,06,27,08,43,28.60
2021,06,27,08,44,28.70
2021,06,27,08,45,28.80
2021,06,27,08,46,28.80
2021,06,27,08,47,28.80
2021,06,27,08,48,28.90
2021,06,27,08,49,29.00
2021,06,27,08,50,29.10
2021,06,27,08,51,29.10
2021,06,27,08,52,29.20
2021,06,27,08,53,29.20
2021,06,27,08,54,29.20
2021,06,27,08,55,29.20
2021,06,27,08,56,29.20
2021,06,27,08,57,29.10
2021,06,27,08,58,29.10
2021,06,27,08,59,29.10
2021,06,27,09,00,29.10
2021,06,27,09,01,29.20
2021,06,27,09,02,29.20
2021,06,27,09,03,29.20
2021,06,27,09,04,29.20
2021,06,27,09,05,29.20
2021,06,27,09,06,29.20
2021,06,27,09,07,29.20
2021,06,27,09,08,29.20
2021,06,27,09,09,29.20
2021,06,27,09,10,29.30
2021,06,27,09,11,29.30
2021,06,27,09,12,29.40
2021,06,27,09,13,29.50
2021,06,27,09,14,29.60
2021,06,27,09,15,29.70
2021,06,27,09,16,29.70
2021,06,27,09,17,29.80
2021,06,27,09,18,30.00
2021,06,27,09,19,30.10
2021,06,27,09,20,30.20
2021,06,27,09,21,30.30
2021,06,27,09,22,30.30
2021,06,27,09,23,30.40
2021,06,27,09,24,30.40
2021,06,27,09,25,30.50
2021,06,27,09,26,30.60
2021,06,27,09,27,30.60
2021,06,27,09,28,30.70
2021,06,27,09,29,30.80
2021,06,27,09,30,30.90
2021,06,27,09,31,30.90
2021,06,27,09,32,31.00
2021,06,27,09,33,31.10
2021,06,27,09,34,31.10
2021,06,27,09,35,31.20
2021,06,27,09,36,31.20
2021,06,27,09,37,31.30
2021,06,27,09,38,31.40
2021,06,27,09,39,31.40
2021,06,27,09,40,31.50
2021,06,27,09,41,31.50
2021,06,27,09,42,31.60
2021,06,27,09,43,31.60
2021,06,27,09,44,31.60
2021,06,27,09,45,31.60
2021,06,27,09,46,31.50
2021,06,27,09,47,31.40
2021,06,27,09,48,31.40
2021,06,27,09,49,31.40
2021,06,27,09,50,31.40
2021,06,27,09,51,31.40
2021,06,27,09,52,31.50
2021,06,27,09,53,31.60
2021,06,27,09,54,31.60
2021,06,27,09,55,31.60
2021,06,27,09,56,31.60
2021,06,27,09,57,31.50
2021,06,27,09,58,31.50
2021,06,27,09,59,31.50
2021,06,27,10,00,31.50
2021,06,27,10,01,31.60
2021,06,27,10,02,31.60
2021,06,27,10,03,31.70
2021,06,27,10,04,31.70
2021,06,27,10,05,31.70
2021,06,27,10,06,31.70
2021,06,27,10,07,31.70
2021,06,27,10,08,31.80
2021,06,27,10,09,31.80
2021,06,27,10,10,31.90
2021,06,27,10,11,32.00
2021,06,27,10,12,32.00
2021,06,27,10,13,32.10
2021,06,27,10,14,32.20
2021,06,27,10,15,32.20
2021,06,27,10,16,32.20
2021,06,27,10,17,32.30
2021,06,27,10,18,32.30
2021,06,27,10,19,32.40
2021,06,27,10,20,32.40
2021,06,27,10,21,32.50
2021,06,27,10,22,32.50
2021,06,27,10,23,32.60
2021,06,27,10,24,32.60
2021,06,27,10,25,32.70
2021,06,27,10,26,32.70
2021,06,27,10,27,32.70
2021,06,27,10,28,32.70
2021,06,27,10,29,32.80
2021,06,27,10,30,32.80
2021,06,27,10,31,32.80
2021,06,27,10,32,32.90
2021,06,27,10,33,32.90
2021,06,27,10,34,32.90
2021,06,27,10,35,32.90
2021,06,27,10,36,32.90
2021,06,27,10,37,33.00
2021,06,27,10,38,33.00
2021,06,27,10,39,33.10
2021,06,27,10,40,33.20
2021,06,27,10,41,33.20
2021,06,27,10,42,33.30
2021,06,27,10,43,33.40
2021,06,27,10,44,33.40
2021,06,27,10,45,33.40
2021,06,27,10,46,33.30
2021,06,27,10,47,33.20
2021,06,27,10,48,33.00
2021,06,27,10,49,32.80
2021,06,27,10,50,32.60
2021,06,27,10,51,32.50
2021,06,27,10,52,32.40
2021,06,27,10,53,32.20
2021,06,27,10,54,32.10
2021,06,27,10,55,32.00
2021,06,27,10,56,31.90
2021,06,27,10,57,31.90
2021,06,27,10,58,31.90
2021,06,27,10,59,31.80
2021,06,27,11,00,31.80
2021,06,27,11,01,31.80
2021,06,27,11,02,31.80
2021,06,27,11,03,31.80
2021,06,27,11,04,31.80
2021,06,27,11,05,31.80
2021,06,27,11,06,31.80
2021,06,27,11,07,31.80
2021,06,27,11,08,31.90
2021,06,27,11,09,31.90
2021,06,27,11,10,31.80
2021,06,27,11,11,31.80
2021,06,27,11,12,31.90
2021,06,27,11,13,31.90
2021,06,27,11,14,32.00
2021,06,27,11,15,32.00
2021,06,27,11,16,32.10
2021,06,27,11,17,32.10
2021,06,27,11,18,32.20
2021,06,27,11,19,32.20
2021,06,27,11,20,32.20
2021,06,27,11,21,32.30
2021,06,27,11,22,32.40
2021,06,27,11,23,32.40
2021,06,27,11,24,32.50
2021,06,27,11,25,32.60
2021,06,27,11,26,32.60
2021,06,27,11,27,32.60
2021,06,27,11,28,32.70
2021,06,27,11,29,32.70
2021,06,27,11,30,32.70
2021,06,27,11,31,32.70
2021,06,27,11,32,32.70
2021,06,27,11,33,32.70
2021,06,27,11,34,32.70
2021,06,27,11,35,32.70
2021,06,27,11,36,32.80
2021,06,27,11,37,32.80
2021,06,27,11,38,32.80
2021,06,27,11,39,32.80
2021,06,27,11,40,32.80
2021,06,27,11,41,32.70
2021,06,27,11,42,32.70
2021,06,27,11,43,32.70
2021,06,27,11,44,32.70
2021,06,27,11,45,32.70
2021,06,27,11,46,32.80
2021,06,27,11,47,32.80
2021,06,27,11,48,32.80
2021,06,27,11,49,32.80
2021,06,27,11,50,32.90
2021,06,27,11,51,33.00
2021,06,27,11,52,33.10
2021,06,27,11,53,33.10
2021,06,27,11,54,33.20
2021,06,27,11,55,33.20
2021,06,27,11,56,33.20
2021,06,27,11,57,33.30
2021,06,27,11,58,33.30
2021,06,27,11,59,33.40
2021,06,27,12,00,33.50
2021,06,27,12,01,33.60
2021,06,27,12,02,33.70
2021,06,27,12,03,33.80
2021,06,27,12,04,33.90
2021,06,27,12,05,34.10
2021,06,27,12,06,34.20
2021,06,27,12,07,34.30
2021,06,27,12,08,34.40
2021,06,27,12,09,34.50
2021,06,27,12,10,34.60
2021,06,27,12,11,34.70
2021,06,27,12,12,34.80
2021,06,27,12,13,34.80
2021,06,27,12,14,34.90
2021,06,27,12,15,34.90
2021,06,27,12,16,35.00
2021,06,27,12,17,35.10
2021,06,27,12,18,35.20
2021,06,27,12,19,35.30
2021,06,27,12,20,35.40
2021,06,27,12,21,35.50
2021,06,27,12,22,35.50
2021,06,27,12,23,35.60
2021,06,27,12,24,35.70
2021,06,27,12,25,35.80
2021,06,27,12,26,35.90
2021,06,27,12,27,35.90
2021,06,27,12,28,36.00
2021,06,27,12,29,36.00
2021,06,27,12,30,36.10
2021,06,27,12,31,36.20
2021,06,27,12,32,36.20
2021,06,27,12,33,36.30
2021,06,27,12,34,36.40
2021,06,27,12,35,36.50
2021,06,27,12,36,36.50
2021,06,27,12,37,36.50
2021,06,27,12,38,36.50
2021,06,27,12,39,36.50
2021,06,27,12,40,36.60
2021,06,27,12,41,36.60
2021,06,27,12,42,36.60
2021,06,27,12,43,36.50
2021,06,27,12,44,36.50
2021,06,27,12,45,36.40
2021,06,27,12,46,36.40
2021,06,27,12,47,36.40
2021,06,27,12,48,36.40
2021,06,27,12,49,36.40
2021,06,27,12,50,36.50
2021,06,27,12,51,36.50
2021,06,27,12,52,36.60
2021,06,27,12,53,36.70
2021,06,27,12,54,36.70
2021,06,27,12,55,36.80
2021,06,27,12,56,36.80
2021,06,27,12,57,36.80
2021,06,27,12,58,36.80
2021,06,27,12,59,36.80
2021,06,27,13,00,36.70
2021,06,27,13,01,36.70
2021,06,27,13,02,36.60
2021,06,27,13,03,36.50
2021,06,27,13,04,36.50
2021,06,27,13,05,36.40
2021,06,27,13,06,36.40
2021,06,27,13,07,36.40
2021,06,27,13,08,36.50
2021,06,27,13,09,36.50
2021,06,27,13,10,36.60
2021,06,27,13,11,36.60
2021,06,27,13,12,36.70
2021,06,27,13,13,36.70
2021,06,27,13,14,36.80
2021,06,27,13,15,36.90
2021,06,27,13,16,36.90
2021,06,27,13,17,37.00
2021,06,27,13,18,37.10
2021,06,27,13,19,37.10
2021,06,27,13,20,37.20
2021,06,27,13,21,37.30
2021,06,27,13,22,37.30
2021,06,27,13,23,37.30
2021,06,27,13,24,37.30
2021,06,27,13,25,37.30
2021,06,27,13,26,37.30
2021,06,27,13,27,37.30
2021,06,27,13,28,37.30
2021,06,27,13,29,37.30
2021,06,27,13,30,37.30
2021,06,27,13,31,37.30
2021,06,27,13,32,37.30
2021,06,27,13,33,37.30
2021,06,27,13,34,37.40
2021,06,27,13,35,37.30
2021,06,27,13,36,37.30
2021,06,27,13,37,37.30
2021,06,27,13,38,37.20
2021,06,27,13,39,37.20
2021,06,27,13,40,37.10
2021,06,27,13,41,37.10
2021,06,27,13,42,37.20
2021,06,27,13,43,37.30
2021,06,27,13,44,37.30
2021,06,27,13,45,37.30
2021,06,27,13,46,37.40
2021,06,27,13,47,37.40
2021,06,27,13,48,37.40
2021,06,27,13,49,37.50
2021,06,27,13,50,37.50
2021,06,27,13,51,37.60
2021,06,27,13,52,37.60
2021,06,27,13,53,37.50
2021,06,27,13,54,37.50
2021,06,27,13,55,37.50
2021,06,27,13,56,37.60
2021,06,27,13,57,37.60
2021,06,27,13,58,37.70
2021,06,27,13,59,37.70
2021,06,27,14,00,37.70
2021,06,27,14,01,37.80
2021,06,27,14,02,37.80
2021,06,27,14,03,37.80
2021,06,27,14,04,37.80
2021,06,27,14,05,37.80
2021,06,27,14,06,37.90
2021,06,27,14,07,38.00
2021,06,27,14,08,38.00
2021,06,27,14,09,38.10
2021,06,27,14,10,38.10
2021,06,27,14,11,38.10
2021,06,27,14,12,38.00
2021,06,27,14,13,37.90
2021,06,27,14,14,37.90
2021,06,27,14,15,37.90
2021,06,27,14,16,37.90
2021,06,27,14,17,37.80
2021,06,27,14,18,37.80
2021,06,27,14,19,37.80
2021,06,27,14,20,37.70
2021,06,27,14,21,37.60
2021,06,27,14,22,37.50
2021,06,27,14,23,37.50
2021,06,27,14,24,37.40
2021,06,27,14,25,37.40
2021,06,27,14,26,37.40
2021,06,27,14,27,37.40
2021,06,27,14,28,37.40
2021,06,27,14,29,37.50
2021,06,27,14,30,37.50
2021,06,27,14,31,37.60
2021,06,27,14,32,37.60
2021,06,27,14,33,37.60
2021,06,27,14,34,37.70
2021,06,27,14,35,37.70
2021,06,27,14,36,37.70
2021,06,27,14,37,37.80
2021,06,27,14,38,37.90
2021,06,27,14,39,37.90
2021,06,27,14,40,38.00
2021,06,27,14,41,38.00
2021,06,27,14,42,38.20
2021,06,27,14,43,38.30
2021,06,27,14,44,38.30
2021,06,27,14,45,38.30
2021,06,27,14,46,38.30
2021,06,27,14,47,38.30
2021,06,27,14,48,38.30
2021,06,27,14,49,38.30
2021,06,27,14,50,38.30
2021,06,27,14,51,38.30
2021,06,27,14,52,38.30
2021,06,27,14,53,38.30
2021,06,27,14,54,38.30
2021,06,27,14,55,38.20
2021,06,27,14,56,38.20
2021,06,27,14,57,38.20
2021,06,27,14,58,38.20
2021,06,27,14,59,38.10
2021,06,27,15,00,38.00
2021,06,27,15,01,37.90
2021,06,27,15,02,37.90
2021,06,27,15,03,37.90
2021,06,27,15,04,37.90
2021,06,27,15,05,37.90
2021,06,27,15,06,38.00
2021,06,27,15,07,38.00
2021,06,27,15,08,38.00
2021,06,27,15,09,37.90
2021,06,27,15,10,37.90
2021,06,27,15,11,38.00
2021,06,27,15,12,38.00
2021,06,27,15,13,38.10
2021,06,27,15,14,38.10
2021,06,27,15,15,38.20
2021,06,27,15,16,38.10
2021,06,27,15,17,38.10
2021,06,27,15,18,38.10
2021,06,27,15,19,38.00
2021,06,27,15,20,38.00
2021,06,27,15,21,37.90
2021,06,27,15,22,37.90
2021,06,27,15,23,37.90
2021,06,27,15,24,37.80
2021,06,27,15,25,37.80
2021,06,27,15,26,37.80
2021,06,27,15,27,37.80
2021,06,27,15,28,37.70
2021,06,27,15,29,37.70
2021,06,27,15,30,37.70
2021,06,27,15,31,37.60
2021,06,27,15,32,37.60
2021,06,27,15,33,37.60
2021,06,27,15,34,37.60
2021,06,27,15,35,37.60
2021,06,27,15,36,37.60
2021,06,27,15,37,37.70
2021,06,27,15,38,37.70
2021,06,27,15,39,37.70
2021,06,27,15,40,37.70
2021,06,27,15,41,37.70
2021,06,27,15,42,37.70
2021,06,27,15,43,37.80
2021,06,27,15,44,37.70
2021,06,27,15,45,37.70
2021,06,27,15,46,37.70
2021,06,27,15,47,37.60
2021,06,27,15,48,37.60
2021,06,27,15,49,37.60
2021,06,27,15,50,37.60
2021,06,27,15,51,37.50
2021,06,27,15,52,37.50
2021,06,27,15,53,37.40
2021,06,27,15,54,37.40
2021,06,27,15,55,37.40
2021,06,27,15,56,37.40
2021,06,27,15,57,37.40
2021,06,27,15,58,37.40
2021,06,27,15,59,37.40
2021,06,27,16,00,37.40
2021,06,27,16,01,37.40
2021,06,27,16,02,37.50
2021,06,27,16,03,37.50
2021,06,27,16,04,37.60
2021,06,27,16,05,37.60
2021,06,27,16,06,37.60
2021,06,27,16,07,37.60
2021,06,27,16,08,37.70
2021,06,27,16,09,37.80
2021,06,27,16,10,37.80
2021,06,27,16,11,37.80
2021,06,27,16,12,37.80
2021,06,27,16,13,37.70
2021,06,27,16,14,37.70
2021,06,27,16,15,37.70
2021,06,27,16,16,37.70
2021,06,27,16,17,37.80
2021,06,27,16,18,37.80
2021,06,27,16,19,37.80
2021,06,27,16,20,37.90
2021,06,27,16,21,37.90
2021,06,27,16,22,38.00
2021,06,27,16,23,38.10
2021,06,27,16,24,38.10
2021,06,27,16,25,38.10
2021,06,27,16,26,38.20
2021,06,27,16,27,38.10
2021,06,27,16,28,38.10
2021,06,27,16,29,38.10
2021,06,27,16,30,38.10
2021,06,27,16,31,38.00
2021,06,27,16,32,38.00
2021,06,27,16,33,37.90
2021,06,27,16,34,37.90
2021,06,27,16,35,37.90
2021,06,27,16,36,37.90
2021,06,27,16,37,37.90
2021,06,27,16,38,37.90
2021,06,27,16,39,37.80
2021,06,27,16,40,37.80
2021,06,27,16,41,37.70
2021,06,27,16,42,37.70
2021,06,27,16,43,37.80
2021,06,27,16,44,37.70
2021,06,27,16,45,37.80
2021,06,27,16,46,37.80
2021,06,27,16,47,37.90
2021,06,27,16,48,37.90
2021,06,27,16,49,38.00
2021,06,27,16,50,38.10
2021,06,27,16,51,38.10
2021,06,27,16,52,38.20
2021,06,27,16,53,38.30
2021,06,27,16,54,38.30
2021,06,27,16,55,38.40
2021,06,27,16,56,38.50
2021,06,27,16,57,38.50
2021,06,27,16,58,38.60
2021,06,27,16,59,38.60
2021,06,27,17,00,38.60
2021,06,27,17,01,38.70
2021,06,27,17,02,38.70
2021,06,27,17,03,38.70
2021,06,27,17,04,38.80
2021,06,27,17,05,38.80
2021,06,27,17,06,38.80
2021,06,27,17,07,38.90
2021,06,27,17,08,38.90
2021,06,27,17,09,39.00
2021,06,27,17,10,39.00
2021,06,27,17,11,39.10
2021,06,27,17,12,39.10
2021,06,27,17,13,39.20
2021,06,27,17,14,39.30
2021,06,27,17,15,39.30
2021,06,27,17,16,39.40
2021,06,27,17,17,39.40
2021,06,27,17,18,39.50
2021,06,27,17,19,39.60